STARLINK-32823, 62823

Orbit data source: Space-Track

STARLINK-32823, 62823 is a payload satellite owned by SpaceX/Seattle (US) in LEO that was launched on Fri, 24 Jan 2025 UTC via an FALCON 9 launch vehicle from the Air Force Western Test Range (AFWTR). Payload-class satellites include a variety of spacecraft equipped with specific instruments for various scientific and technological missions. These include communications satellites like Starlink; space stations such as the ISS; scientific satellites like the Hubble; Earth observation satellites from companies like Planet Labs, Umbra, and HawkEye 360; GPS; miniature CubeSats for education and research; and military/defense satellites.

Loading next visibility...
Identifier
62823, 2025-018T
Orbit
LEO
Country
Flag of USUS
Related business
Manufacturer
SpaceX/Seattle
Mission
Operational Commercial Communications
Bus & Motor
STARLINK V2M, Unknown motor
Mass
730 kg wet, ~700 kg dry
Launch date (UTC)
2025-01-24 (1 year ago)
Launch vehicle
FALCON 9
Launch site
Air Force Western Test Range (AFWTR)
Object type
Payload
Rocket body
Debris
Shape & HBR
Box + 2 Pan, 17.7 m
Radar Cross Section
33.884 m², Large (>1 m²)

Expand to show TLE details & history
Last TLE update: 13 hours ago

TLE from 13 hours ago
0 STARLINK-32823
1 62823U 25018T   26036.56760748  .00048877  00000-0  16498-2 0  9991
2 62823  53.1597  98.5642 0000924  84.0629 276.0477 15.30235152 58262
Epoch: 2026-02-05T13:37Z
TLE epoch observation values (Epoch: 2026-02-05T13:37:21.286Z)
Latitude
-0.00002°
Longitude
118.50752°
Altitude
475.943 km
Speed
7.629 km/s
True Right ascension
06h 34m 15s
True Declination
0° 00' 00"
Sunlit
Object was in full shadow at epoch
Visualization orbit readout
Latitude
Unknown
Longitude
Unknown
Altitude
Unknown
Speed
Unknown
Apparent Right ascension
Unknown
Apparent Declination
Unknown
Sunlit
N/A
Visualization observer readout
Local Sidereal Time
05:04:34
Azimuth
Unknown
Elevation
Unknown
Doppler factor
Unknown
Orbital elements
Apogee altitude
476 km
Perigee altitude
474.733 km
Semi-major axis
6,853.504 km
Eccentricity
0.00009
Inclination
53.1597°
RAAN
98.5642°
Arg. of periapsis
84.0629°
True anomaly
276.03717°
Mean anomaly
276.0477°
Eccentric anomaly
276.04244°
Mean motion
3.82538 °/min
Orbital period
94.11 mins
BSTAR
0.0016498
Loading maneuver chart data...
Computing Atmospheric mass density...
Loading historical data...
Loading historical data...
Loading historical data...
Loading historical data...
Loading historical data...
Loading historical data...
Loading historical data...

Documentation

Showing up to 5 results
|